Date,TemperatureHighF,TemperatureAvgF,TemperatureLowF,DewpointHighF,DewpointAvgF,DewpointLowF,HumidityHigh,HumidityAvg,HumidityLow,PressureMaxIn,PressureMinIn,WindSpeedMaxMPH,WindSpeedAvgMPH,GustSpeedMaxMPH,PrecipitationSumIn
2013-6-1,62,46,29,-100,-100,-100,0,0,100,0.00,40.00,0,-999,0,0.00
2013-6-2,61,49,34,-100,-100,-100,0,0,100,0.00,40.00,0,-999,0,0.00
2013-6-3,58,51,43,-100,-100,-100,0,0,100,0.00,40.00,0,-999,0,0.01
2013-6-4,63,52,38,-100,-100,-100,0,0,100,0.00,40.00,0,-999,0,0.00
2013-6-5,61,52,37,-100,-100,-100,0,0,100,0.00,40.00,0,-999,0,0.00
2013-6-6,63,53,35,-100,-100,-100,0,0,100,0.00,40.00,0,-999,0,0.00
2013-6-7,62,48,36,-100,-100,-100,0,0,100,0.00,40.00,0,-999,0,0.00
2013-6-8,66,54,39,-100,-100,-100,0,0,100,0.00,40.00,0,-999,0,0.00
2013-6-9,71,58,41,-100,-100,-100,0,0,100,0.00,40.00,0,-999,0,0.01
2013-6-10,71,59,41,-100,-100,-100,0,0,100,0.00,40.00,0,-999,0,0.00
2013-6-11,67,57,46,-100,-100,-100,0,0,100,0.00,40.00,0,-999,0,0.00
2013-6-12,68,57,41,-100,-100,-100,0,0,100,0.00,40.00,0,-999,0,0.00
2013-6-13,67,56,43,-100,-100,-100,0,0,100,0.00,40.00,0,-999,0,0.00
2013-6-14,64,54,41,-100,-100,-100,0,0,100,0.00,40.00,0,-999,0,0.00
2013-6-15,60,50,37,-100,-100,-100,0,0,100,0.00,40.00,0,-999,0,0.00
2013-6-16,62,50,37,-100,-100,-100,0,0,100,0.00,40.00,0,-999,0,0.00
2013-6-17,61,52,41,-100,-100,-100,0,0,100,0.00,40.00,0,-999,0,0.00
2013-6-18,63,52,35,-100,-100,-100,0,0,100,0.00,40.00,0,-999,0,0.00
2013-6-19,65,56,47,-100,-100,-100,0,0,100,0.00,40.00,0,-999,0,0.00
2013-6-20,61,50,43,-100,-100,-100,0,0,100,0.00,40.00,0,-999,0,0.00
2013-6-22,64,58,42,-100,-100,-100,0,0,100,0.00,40.00,0,-999,0,0.00
2013-6-23,62,52,36,-100,-100,-100,0,0,100,0.00,40.00,0,-999,0,0.00
2013-6-24,62,54,43,-100,-100,-100,0,0,100,0.00,40.00,0,-999,0,0.00
2013-6-25,66,54,42,-100,-100,-100,0,0,100,0.00,40.00,0,-999,0,0.00
2013-6-26,73,59,40,-100,-100,-100,0,0,100,0.00,40.00,0,-999,0,0.00
2013-6-27,76,58,44,-100,-100,-100,0,0,100,0.00,40.00,0,-999,0,0.00
2013-6-28,71,59,45,-100,-100,-100,0,0,100,0.00,40.00,0,-999,0,0.00
2013-6-29,71,56,44,-100,-100,-100,0,0,100,0.00,40.00,0,-999,0,0.00
2013-6-30,65,56,42,-100,-100,-100,0,0,100,0.00,40.00,0,-999,0,0.00